Toccoa Rg Letourneau Field, T, GA

6:08 AM EDT on March 27, 2017 (GMT -0400)
Toccoa-Letourneau

Weather History for KTOC - December, 2012

Change the Weather History Date:

Thursday, December 13, 2012

  Actual Average Record
Temperature  
Mean Temperature 48 °F -  
Max Temperature 58 °F 56 °F 71 °F (2015)
Min Temperature 37 °F 36 °F 30 °F (2013)
Degree Days  
Heating Degree Days 18    
Moisture  
Dew Point 35 °F    
Average Humidity 63    
Maximum Humidity 86    
Minimum Humidity 33    
Precipitation  
Precipitation 0.00 in - - ()
Sea Level Pressure  
Sea Level Pressure 30.31 in    
Wind  
Wind Speed 2 mph ()    
Max Wind Speed 8 mph    
Max Gust Speed -    
Visibility 10.0 miles    
Events      
Averages and records for this station are not official NWS values.
T = Trace of Precipitation, MM = Missing Value Source: Averaged Metar Reports

Daily Weather History Graph

Daily Weather History Graph

Search for Another Location

Airport or City:

Trip Planner

Search our weather history database for the weather conditions in past years. The results will help you decide how hot, cold, wet, or windy it might be!

Date:

Astronomy

Dec. 13, 2012 Rise Set
Actual Time 7:31 AM EST 5:23 PM EST
Civil Twilight 7:03 AM EST 5:51 PM EST
Nautical Twilight 6:32 AM EST 6:23 PM EST
Astronomical Twilight 6:01 AM EST 6:53 PM EST
Moon 7:39 AM EST (12/13) 6:03 PM EST (12/13)
Length of Visible Light 10h 47m
Length of Day
9h 51m
New Moon, 0% of the Moon is Illuminated
Dec 13
New Moon
Dec 20
First Quarter
Dec 28
Full
Jan 4
Last Quarter
Jan 11
New

Hourly Weather History & Observations

Time (EST) Temp. Windchill Dew Point Humidity Pressure Visibility Wind Dir Wind Speed Gust Speed Precip Events Conditions
12:15 AM 48.2 °F - 37.6 °F 67% 30.25 in 10.0 mi ENE 8.1 mph - N/A   Overcast
12:35 AM 48.2 °F - 37.2 °F 66% 30.26 in 10.0 mi Calm Calm - N/A   Overcast
12:55 AM 47.8 °F - 37.0 °F 66% 30.26 in 10.0 mi East 3.5 mph - N/A   Overcast
1:15 AM 47.7 °F - 36.1 °F 64% 30.24 in 10.0 mi East 6.9 mph - N/A   Overcast
1:35 AM 47.5 °F - 35.8 °F 64% 30.24 in 10.0 mi ESE 4.6 mph - N/A   Overcast
1:55 AM 47.3 °F - 35.8 °F 64% 30.27 in 10.0 mi Calm Calm - N/A   Overcast
2:15 AM 47.3 °F - 36.0 °F 65% 30.27 in 10.0 mi SE 4.6 mph - N/A   Overcast
2:35 AM 47.3 °F - 36.1 °F 65% 30.27 in 10.0 mi Calm Calm - N/A   Overcast
2:55 AM 47.3 °F - 36.3 °F 66% 30.27 in 10.0 mi ENE 3.5 mph - N/A   Overcast
3:15 AM 47.1 °F - 36.5 °F 67% 30.28 in 10.0 mi Calm Calm - N/A   Overcast
3:35 AM 47.3 °F - 36.9 °F 67% 30.28 in 10.0 mi Calm Calm - N/A   Overcast
3:55 AM 46.8 °F - 37.2 °F 69% 30.27 in 10.0 mi Calm Calm - N/A   Overcast
4:15 AM 46.8 °F - 37.4 °F 70% 30.27 in 10.0 mi NNE 3.5 mph - N/A   Overcast
4:35 AM 46.9 °F - 37.0 °F 68% 30.28 in 10.0 mi Calm Calm - N/A   Overcast
4:55 AM 46.8 °F - 37.9 °F 71% 30.28 in 10.0 mi Calm Calm - N/A   Overcast
5:15 AM 46.8 °F - 38.5 °F 73% 30.29 in 10.0 mi Calm Calm - N/A   Overcast
5:35 AM 46.8 °F - 37.8 °F 71% 30.30 in 10.0 mi Calm Calm - N/A   Overcast
5:55 AM 46.0 °F - 39.2 °F 77% 30.30 in 10.0 mi Calm Calm - N/A   Overcast
6:15 AM 46.0 °F - 38.8 °F 76% 30.31 in 10.0 mi Calm Calm - N/A   Overcast
6:35 AM 45.9 °F - 39.2 °F 78% 30.31 in 10.0 mi Calm Calm - N/A   Overcast
6:55 AM 45.0 °F - 38.7 °F 79% 30.31 in 10.0 mi Calm Calm - N/A   Mostly Cloudy
7:15 AM 44.1 °F - 37.6 °F 78% 30.31 in 10.0 mi Calm Calm - N/A   Mostly Cloudy
7:35 AM 41.9 °F 40.0 °F 38.1 °F 86% 30.30 in 10.0 mi East 3.5 mph - N/A   Scattered Clouds
7:55 AM 43.0 °F 41.3 °F 37.4 °F 81% 30.31 in 10.0 mi East 3.5 mph - N/A   Clear
8:15 AM 42.4 °F - 37.6 °F 83% 30.32 in 10.0 mi Calm Calm - N/A   Clear
8:35 AM 42.3 °F - 38.3 °F 86% 30.33 in 10.0 mi Calm Calm - N/A   Clear
8:55 AM 44.2 °F 42.7 °F 39.2 °F 82% 30.34 in 10.0 mi North 3.5 mph - N/A   Clear
9:15 AM 46.4 °F - 37.6 °F 71% 30.35 in 10.0 mi Calm Calm - N/A   Clear
9:35 AM 49.1 °F - 36.9 °F 63% 30.35 in 10.0 mi ENE 4.6 mph - N/A   Clear
9:55 AM 50.0 °F - 34.3 °F 55% 30.36 in 10.0 mi ENE 3.5 mph - N/A   Clear
10:15 AM 51.1 °F - 35.1 °F 54% 30.37 in 10.0 mi East 6.9 mph - N/A   Clear
10:35 AM 51.8 °F - 34.5 °F 52% 30.36 in 10.0 mi ENE 5.8 mph - N/A   Clear
10:55 AM 52.7 °F - 35.1 °F 51% 30.36 in 10.0 mi ENE 4.6 mph - N/A   Clear
11:15 AM 53.8 °F - 35.2 °F 50% 30.35 in 10.0 mi ESE 4.6 mph - N/A   Clear
11:35 AM 55.4 °F - 34.3 °F 45% 30.35 in 10.0 mi East 6.9 mph - N/A   Clear
11:55 AM 55.2 °F - 32.9 °F 43% 30.34 in 10.0 mi Calm Calm - N/A   Clear
12:15 PM 56.1 °F - 32.9 °F 41% 30.33 in 10.0 mi SE 4.6 mph - N/A   Clear
12:35 PM 56.1 °F - 33.3 °F 42% 30.32 in 10.0 mi ESE 5.8 mph - N/A   Clear
12:55 PM 56.1 °F - 32.9 °F 41% 30.32 in 10.0 mi ENE 3.5 mph - N/A   Clear
1:15 PM 56.7 °F - 32.2 °F 40% 30.32 in 10.0 mi Calm Calm - N/A   Clear
1:35 PM 57.9 °F - 32.2 °F 38% 30.31 in 10.0 mi ESE 5.8 mph - N/A   Clear
1:55 PM 58.3 °F - 31.3 °F 36% 30.31 in 10.0 mi ENE 4.6 mph - N/A   Clear
2:15 PM 58.1 °F - 30.2 °F 35% 30.31 in 10.0 mi East 4.6 mph - N/A   Clear
2:35 PM 58.3 °F - 30.0 °F 34% 30.30 in 10.0 mi South 3.5 mph - N/A   Clear
2:55 PM 58.6 °F - 30.0 °F 34% 30.31 in 10.0 mi Calm Calm - N/A   Clear
3:15 PM 58.1 °F - 29.3 °F 33% 30.30 in 10.0 mi Calm Calm - N/A   Clear
3:35 PM 58.3 °F - 30.4 °F 35% 30.30 in 10.0 mi Calm Calm - N/A   Clear
3:55 PM 58.1 °F - 30.0 °F 34% 30.30 in 10.0 mi East 3.5 mph - N/A   Clear
4:15 PM 57.4 °F - 30.2 °F 36% 30.29 in 10.0 mi Calm Calm - N/A   Clear
4:35 PM 57.2 °F - 30.2 °F 36% 30.29 in 10.0 mi ESE 3.5 mph - N/A   Clear
4:55 PM 55.6 °F - 31.3 °F 40% 30.30 in 10.0 mi ESE 3.5 mph - N/A   Clear
5:35 PM 51.4 °F - 32.9 °F 49% 30.30 in 10.0 mi ESE 3.5 mph - N/A   Clear
7:55 PM 43.7 °F - 35.6 °F 73% 30.32 in 10.0 mi Calm Calm - N/A   Clear
8:15 PM 43.5 °F 41.9 °F 35.6 °F 74% 30.32 in 10.0 mi NNW 3.5 mph - N/A   Clear
8:35 PM 42.1 °F - 35.4 °F 77% 30.33 in 10.0 mi Calm Calm - N/A   Clear
9:15 PM 41.0 °F - 35.1 °F 79% 30.34 in 10.0 mi Calm Calm - N/A   Clear
9:35 PM 39.4 °F 37.2 °F 35.4 °F 86% 30.34 in 10.0 mi NNW 3.5 mph - N/A   Clear
9:55 PM 39.6 °F 37.4 °F 34.9 °F 83% 30.35 in 10.0 mi NNW 3.5 mph - N/A   Clear
10:15 PM 39.2 °F 37.0 °F 34.9 °F 84% 30.35 in 10.0 mi NNW 3.5 mph - N/A   Clear
10:35 PM 38.5 °F - 34.5 °F 86% 30.35 in 10.0 mi Calm Calm - N/A   Clear
10:55 PM 37.8 °F 35.3 °F 33.8 °F 86% 30.35 in 10.0 mi NNW 3.5 mph - N/A   Clear
11:15 PM 39.0 °F - 34.0 °F 82% 30.35 in 10.0 mi Calm Calm - N/A   Clear
11:35 PM 38.1 °F 35.7 °F 33.8 °F 84% 30.35 in 10.0 mi NNW 3.5 mph - N/A   Clear
11:55 PM 37.2 °F - 33.1 °F 85% 30.35 in 10.0 mi Calm Calm - N/A   Clear